User: anonymous   Login
Location: Unspecified
(0.0000°N, 0.0000°E)
Time: 11:20:44
(UTC+00:00)
Language:

SMS 1 - Orbit

View from above orbital plane
View from above orbital plane
View from above satellite
View from above satellite

Ground track
Ground track

The orbit data is extracted from the following two-line orbital elements,

1  7298U 74033A   19081.46956880 -.00000220 +00000-0 +00000-0 0  9993
2  7298 010.7202 297.4156 0020818 000.7359 178.0215 00.98613643093812
Epoch (UTC): 22 March 2019 11:16:10
Eccentricity: 0.0020818
inclination: 10.7202°
perigee height: 36169 km
apogee height: 36346 km
right ascension of ascending node: 297.4156°
argument of perigee: 0.7359°
revolutions per day: 0.98613643
mean anomaly at epoch: 178.0215°
orbit number at epoch: 9381

The dashed part of the orbit path shows where the satellite is in the earth's shadow,  

DLR